FW0765 Weather Reports


Display with metric or nautical units.
time (UTC)temp
F
wind
direction
speed
MPH
gust
MPH
rain 1hr
in
rain 24hr
in
rain mn
in
humidity
%
barometer
mb
20260505024505 77 205 8.0 14.0 0.00 0.00 0.00 62 1005.0
20260505023003 77 215 10.0 17.0 0.00 0.00 0.00 61 1004.8
20260505021502 78 211 7.0 14.0 0.00 0.00 0.00 60 1004.8
20260505020001 78 231 8.0 13.0 0.00 0.00 0.00 59 1004.9
20260505014500 79 232 7.0 15.0 0.00 0.00 0.00 58 1004.8
20260505013101 80 212 5.0 12.0 0.00 0.00 0.00 56 1005.0
20260505011601 80 234 7.0 13.0 0.00 0.00 0.00 54 1005.0
20260505010059 81 240 8.0 16.0 0.00 0.00 0.00 54 1005.0
20260505004559 82 219 6.0 15.0 0.00 0.00 0.00 52 1005.0
20260505003058 82 231 9.0 17.0 0.00 0.00 0.00 51 1005.0
20260505001600 83 210 8.0 17.0 0.00 0.00 0.00 50 1004.9
20260505000058 84 252 7.0 15.0 0.00 0.00 0.00 49 1005.1
20260504234555 84 216 9.0 17.0 0.00 0.00 0.00 48 1005.2
20260504233056 85 197 7.0 18.0 0.00 0.00 0.00 47 1005.3
20260504231557 86 221 7.0 17.0 0.00 0.00 0.00 47 1005.1
20260504230054 86 227 8.0 17.0 0.00 0.00 0.00 46 1005.4
20260504224552 86 220 11.0 20.0 0.00 0.00 0.00 45 1005.6
20260504223052 86 211 9.0 16.0 0.00 0.00 0.00 45 1005.6
20260504221552 86 240 9.0 21.0 0.00 0.00 0.00 46 1005.6
20260504220050 86 208 8.0 17.0 0.00 0.00 0.00 45 1005.7
20260504214555 86 244 12.0 23.0 0.00 0.00 0.00 44 1005.9
20260504213047 87 237 10.0 18.0 0.00 0.00 0.00 46 1006.1
20260504211544 86 257 10.0 16.0 0.00 0.00 0.00 45 1006.4
20260504210054 86 209 8.0 14.0 0.00 0.00 0.00 46 1006.7
20260504204553 86 212 8.0 16.0 0.00 0.00 0.00 48 1007.1
20260504203041 86 200 7.0 15.0 0.00 0.00 0.00 47 1007.2
20260504201533 85 193 7.0 15.0 0.00 0.00 0.00 47 1007.4
20260504200031 85 222 9.0 18.0 0.00 0.00 0.00 49 1007.5
20260504194529 84 245 9.0 20.0 0.00 0.00 0.00 50 1007.9
20260504193027 84 212 6.0 14.0 0.00 0.00 0.00 50 1008.0
20260504191524 83 234 8.0 14.0 0.00 0.00 0.00 50 1008.3
20260504190022 83 207 6.0 16.0 0.00 0.00 0.00 53 1008.7
20260504184518 81 252 7.0 15.0 0.00 0.00 0.00 54 1008.9
20260504183015 81 242 8.0 21.0 0.00 0.00 0.00 54 1009.2
20260504181511 79 225 8.0 17.0 0.00 0.00 0.00 56 1009.6
20260504180008 79 215 8.0 12.0 0.00 0.00 0.00 59 1009.8
20260504174508 78 150 8.0 17.0 0.00 0.00 0.00 58 1010.0
20260504173003 77 205 9.0 18.0 0.00 0.00 0.00 61 1010.1
20260504171612 77 207 9.0 17.0 0.00 0.00 0.00 61 1010.4
20260504081537 62 219 5.0 10.0 0.00 0.00 0.00 67 1011.9
20260504050106 65 196 5.0 9.0 0.00 0.00 0.00 60 1014.6
20260504044511 66 195 4.0 11.0 0.00 0.00 0.00 60 1014.6
20260504043010 66 180 7.0 11.0 0.00 0.00 0.00 59 1014.8
20260504041508 66 197 4.0 8.0 0.00 0.00 0.00 59 1014.8
20260504040002 67 171 4.0 9.0 0.00 0.00 0.00 57 1015.1
20260504034501 67 174 5.0 9.0 0.00 0.00 0.00 56 1014.9
20260504033100 68 182 6.0 10.0 0.00 0.00 0.00 55 1014.9
20260504031600 68 165 5.0 11.0 0.00 0.00 0.00 56 1014.8
20260504030059 68 175 4.0 9.0 0.00 0.00 0.00 56 1014.7